Regional Weather Roundup
Issued by NWS

Home | Current Version | Previous Version | Text Only | Print | Product List | Glossary Off
Versions: 1 2 3 4 5 6 7 8 9 10 11 12 13 14 15 16 17 18 19 20 21 22 23 24 25 26 27 28 29 30 31 32 33 34 35 36 37 38 39 40 41 42 43 44 45 46 47 48 49 50

000
ASUS45 KCYS 051910
RWRWY

WYOMING REGIONAL WEATHER ROUNDUP
NATIONAL WEATHER SERVICE CHEYENNE WY
1200 PM MST THU MAR 05 2015

NOTE:  "FAIR" INDICATES FEW OR NO CLOUDS BELOW 12,000 FEET
WITH NO SIGNIFICANT WEATHER AND/OR OBSTRUCTIONS TO VISIBILITY.

WYZ001-052000-
YELLOWSTONE NATIONAL PARK

CITY           SKY/WX    TMP DP  RH WIND       PRES   REMARKS
LK YELLOWSTONE   N/A     24   7  48 VRB5      30.30F WCI  18
W YELLOWSTONE  NOT AVBL

$$
WYZ002>013-054>058-071-098>099-052000-
NORTHERN WYOMING

CITY           SKY/WX    TMP DP  RH WIND       PRES   REMARKS
JACKSON        NOT AVBL
CODY           FAIR      43  10  26 W16G25    30.15F
GREYBULL       FAIR      33   8  35 S8        30.23F WCI  26
WORLAND        FAIR      32  10  40 SE7       30.23F WCI  26
SHERIDAN       FAIR      39  17  41 N6        30.15F WCI  35
BUFFALO        NOT AVBL
GILLETTE       NOT AVBL
HULETT         FAIR      36  14  41 SW14      30.12F WCI  27
NEWCASTLE      FAIR      36   9  32 W13       30.16F WCI  27

$$
WYZ014>020-022>026-101>103-052000-
CENTRAL WYOMING

CITY           SKY/WX    TMP DP  RH WIND       PRES   REMARKS
BIG PINEY      FAIR      36   9  32 N16       30.29F WCI  26
PINEDALE       FAIR      30  12  47 W20       30.28F WCI  18
DUBOIS         FAIR      34   9  35 NW22G32   30.19F WCI  22
LANDER         FAIR      16   7  67 VRB3      30.22R
RIVERTON       FAIR      16   8  71 S3        30.24S
CASPER         NOT AVBL
DOUGLAS        NOT AVBL

$$
WYZ021-027>030-104>119-052000-
SOUTHERN WYOMING

CITY           SKY/WX    TMP DP  RH WIND       PRES   REMARKS
EVANSTON       FAIR      30  15  53 SW12      30.38S WCI  20
FORT BRIDGER   FAIR      33  16  49 W23       30.37F WCI  21
ROCK SPRINGS   FAIR      30  17  58 W21       30.31S WCI  17
DIXON          FAIR      32  14  47 SW14      30.38F WCI  22
RAWLINS        FAIR      26  14  60 W20G33    30.25R WCI  12
SARATOGA       FAIR      30  14  51 SW10      30.29S WCI  21
LARAMIE        FAIR      30  12  47 SW17G25   30.16S WCI  18
CHEYENNE       NOT AVBL
TORRINGTON     FAIR      41  16  36 W15       30.21S
PINE BLUFFS    FAIR      39  12  33 W22G32    30.21S WCI  29

$$


USA.gov is the U.S. government's official web portal to all federal, state and local government web resources and services.